Weather Roundup
Issued by NWS

Home | Current Version | Previous Version | Text Only | Print | Product List | Glossary On
Versions: 1 2 3 4 5 6 7 8 9 10 11 12 13 14 15 16 17 18 19 20 21 22 23 24 25 26 27 28 29 30 31 32 33 34 35 36 37 38 39 40 41 42 43 44 45 46 47 48 49 50
571
NZUS93 KARX 121610
HRRWXR

CURRENT HOURLY OBSERVATIONS ACROSS
MUCH OF THE UPPER MISSISSIPPI VALLEY
NATIONAL WEATHER SERVICE LA CROSSE WI
1000 AM CST FRI FEB 12 2016


...SOUTHEAST MINNESOTA...


CITY           SKY/WX    TMP DP  RH WIND       PRES   REMARKS
ROCHESTER      SUNNY      8   1  73 NW28      30.28R HAZE    WCI -14
ROCHESTER/MAYO FAIR      10   1  68 NW21G26   30.30R WCI -10
WINONA         SUNNY     14   5  67 NW18G26   30.32R WCI  -3
AUSTIN         SUNNY      9   1  72 NW20G28   30.32R WCI -11
ALBERT LEA     SUNNY     10   1  67 NW13G21   30.34R WCI  -5
DODGE CENTER   MOSUNNY   10   1  67 NW20      30.30R WCI  -8
PRESTON        SUNNY      9   1  70 NW14G20   30.29R WCI  -7
OWATONNA       SUNNY      9   0  66 NW20      30.35R WCI -11
FARIBAULT        N/A      9   0  66 NW13G21   30.37R WCI  -7
$$

...ELSEWHERE IN MINNESOTA...


CITY           SKY/WX    TMP DP  RH WIND       PRES   REMARKS
MINNEAPOLIS    SUNNY      8  -4  58 NW22G31   30.38R WCI -12
INTNL FALLS    MOSUNNY  -10 -20  61 NW9       30.42R WCI -27
DULUTH         MOSUNNY   -4 -15  59 NW22G30   30.28R WCI -28
RED WING       SUNNY     10  -2  56 NW15G23   30.33R WCI  -6
REDWOOD FALLS  SUNNY      8  -3  61 N17G25    30.48R WCI -10
MANKATO        SUNNY    N/A N/A N/A NW22G28   30.39R
WORTHINGTON    SUNNY      9   0  66 N24       30.44R WCI -12
FAIRMONT       SUNNY      9   0  66 NW22G28   30.40R WCI -11
$$

...SOUTHWEST WISCONSIN...


CITY           SKY/WX    TMP DP  RH WIND       PRES   REMARKS
LA CROSSE      PTSUNNY   14   3  61 NW18      30.28R WCI  -3
PRAIRIE DU CHI MOSUNNY   16   3  58 NW18G24   30.29R WCI  -1
BOSCOBEL       FLURRIES  17   7  64 W12       30.26R WCI   4
LONE ROCK      CLOUDY    17   6  62 NW13      30.23R WCI   4
PLATTEVILLE    CLOUDY    15  10  78 NW16      30.22R WCI   0
FORT MC COY    SUNNY     14   1  54 NW17G28   30.25R WCI  -2
CAMP DOUGLAS   MOSUNNY   14   1  57 NW21G26   30.20R WCI  -4
VIROQUA        CLOUDY    13   4  68 NW15G21   30.20S WCI  -3
WIS DELLS      PTSUNNY   14   2  59 NW13G25   30.18R WCI   0
$$

...ELSEWHERE IN WISCONSIN...


CITY           SKY/WX    TMP DP  RH WIND       PRES   REMARKS
MILWAUKEE      PTSUNNY   17   4  56 NW24G30   30.13S WCI  -1
MADISON        FLURRIES  15   5  64 NW15G23   30.17R WCI   0
GREEN BAY      SUNNY     13   0  56 NW20      30.10S WCI  -5
EAU CLAIRE     SUNNY      9  -4  55 NW17G25   30.27R WCI  -9
BLACK RVR FLS  FAIR      13  -4  47 NW17G24   30.25R WCI  -4
MEDFORD        SUNNY      5  -6  61 NW18G26   30.13R HAZE    WCI -15
WAUSAU         SUNNY      9  -4  55 NW15G25   30.12R WCI  -8
WIS RAPIDS     SUNNY     11  -5  48 N18G26    30.18R WCI  -7
MARSHFIELD     SUNNY      8  -4  58 NW22      30.15R WCI -12
RICE LAKE      MOSUNNY    6  -6  57 NW14G21   30.29R WCI -11
$$

...NORTHEAST IOWA...


CITY           SKY/WX    TMP DP  RH WIND       PRES   REMARKS
WATERLOO       PTSUNNY   15   7  70 NW20G32   30.33R WCI  -2
DUBUQUE        PTSUNNY   17   9  70 NW15G30   30.23R WCI   2
DECORAH        PTSUNNY   12   3  67 NW22G30   30.26R WCI  -7
MASON CITY     SUNNY     11   3  70 NW25      30.37R WCI -10
CHARLES CITY   MOSUNNY   12   5  73 NW23G32   30.33R WCI  -7
OELWEIN        LGT SNOW  14   9  79 NW21      30.30R WCI  -4
$$

...ELSEWHERE IN IOWA...


CITY           SKY/WX    TMP DP  RH WIND       PRES   REMARKS
DES MOINES     MOSUNNY   20  11  68 N15       30.40R WCI   6
IOWA CITY      MOSUNNY   21  11  65 NW20G26   30.33R WCI   6
FORT DODGE     MOSUNNY   14   3  62 N13G23    30.42R WCI   0
MARSHALLTOWN   MOSUNNY   17   9  70 NW18G30   30.36R WCI   1
CEDAR RAPIDS   PTSUNNY   19  12  74 NW23      30.30R WCI   2
$$

...NORTHERN ILLINOIS...


CITY           SKY/WX    TMP DP  RH WIND       PRES   REMARKS
CHICAGO-OHARE  FLURRIES  20  11  68 W17G24    30.14S WCI   5
CHICAGO-MIDWAY FLURRIES  21  11  65 NW15      30.15S WCI   8
MOLINE         MOSUNNY   23  12  62 NW14G23   30.26S WCI  11
ROCKFORD       PTSUNNY   20   9  62 NW17      30.21R WCI   5
PEORIA         FLURRIES  23  17  78 NW14      30.25R WCI  11
$$

NOTE: "FAIR" INDICATES FEW OR NO CLOUDS BELOW 12,000 FEET WITH NO
SIGNIFICANT WEATHER AND/OR OBSTRUCTIONS TO VISIBILITY. WIND
SPEEDS ARE IN MILES-PER-HOUR.




USA.gov is the U.S. government's official web portal to all federal, state and local government web resources and services.